Piney Point, MD current weather conditions

sailwx.info

Wind from 157 at 11 knots gusting 12

Last reported at 2020-Aug-10 18:00 UTC.
Time now 2020-Aug-10 18:53 UTC

Location: N 38°08' W 076°32'.
View on Google Maps.

See reports from other nearby stations

  
Tides and Currents Weather Stations Pressure Air Temp Water Temp Dewpoint Dewpoint Depression Visibility Wind Speed Wind Dir Waves Ship Positions
date/time (UTC)wind fromknots sea level pressurealtimeterstation pressurevisibilityair tempwater tempwave heightnotes
2020-Aug-10 18:00 157 11 gusting 12
2020-Aug-10 17:48 154 11 gusting 13
2020-Aug-10 17:42 148 10 gusting 12
2020-Aug-10 17:36 155 12 gusting 13
2020-Aug-10 17:30 148 10 gusting 12
2020-Aug-10 17:24 148 11 gusting 12
2020-Aug-10 17:18 155 12 gusting 13
2020-Aug-10 17:12 149 9 gusting 11
2020-Aug-10 17:06 154 10 gusting 11
2020-Aug-10 17:00 150 9 gusting 11
2020-Aug-10 16:54 153 10 gusting 11
2020-Aug-10 16:48 149 9 gusting 10
2020-Aug-10 16:42 151 8 gusting 9
2020-Aug-10 16:36 153 8 gusting 9
2020-Aug-10 16:30 152 8 gusting 9
2020-Aug-10 16:24 152 8 gusting 9
2020-Aug-10 16:18 157 7 gusting 9
2020-Aug-10 16:12 156 7 gusting 8
2020-Aug-10 16:06 157 7 gusting 7
2020-Aug-10 16:00 154 6 gusting 7
2020-Aug-10 15:54 158 6 gusting 7
2020-Aug-10 15:48 162 6 gusting 7
2020-Aug-10 15:42 161 6 gusting 7
2020-Aug-10 15:36 157 6 gusting 7
2020-Aug-10 15:30 166 6 gusting 6
2020-Aug-10 15:24 159 6 gusting 6
2020-Aug-10 15:18 160 6 gusting 6
2020-Aug-10 15:12 161 6 gusting 6
2020-Aug-10 15:06 161 5 gusting 6
2020-Aug-10 15:00 158 6 gusting 6
2020-Aug-10 14:54 163 5 gusting 6
2020-Aug-10 14:48 166 5 gusting 6
2020-Aug-10 14:42 162 5 gusting 5
2020-Aug-10 14:36 168 4 gusting 5
2020-Aug-10 14:30 162 3 gusting 4
2020-Aug-10 14:24 168 3 gusting 5
2020-Aug-10 14:18 153 3 gusting 3
2020-Aug-10 14:12 165 3 gusting 3
2020-Aug-10 14:06 161 2 gusting 4
2020-Aug-10 14:00 165 2 gusting 4
2020-Aug-10 13:54 160 2 gusting 3
2020-Aug-10 13:48 166 2 gusting 3
2020-Aug-10 13:42 145 2 gusting 3
2020-Aug-10 13:36 145 1 gusting 3
2020-Aug-10 13:30 140 1 gusting 3
2020-Aug-10 13:24 136 1 gusting 1
2020-Aug-10 13:18 131 1 gusting 1
2020-Aug-10 13:12 173 1 gusting 2
2020-Aug-10 13:06 146 0 gusting 2
2020-Aug-10 13:00 199 1 gusting 2
2020-Aug-10 12:54 196 1 gusting 2
2020-Aug-10 12:48 195
2020-Aug-10 12:42 226 1 gusting 2
2020-Aug-10 12:36 212 1 gusting 2
2020-Aug-10 12:30 184 0 gusting 2
2020-Aug-10 12:24 216 1 gusting 3
2020-Aug-10 12:18 224 1 gusting 3
2020-Aug-10 12:12 166 0 gusting 2
2020-Aug-10 12:06 215 2 gusting 3
2020-Aug-10 12:00 199 1 gusting 2
2020-Aug-10 11:54 167 1 gusting 1
2020-Aug-10 11:48 216 1 gusting 1
2020-Aug-10 11:42 229 0 gusting 1
2020-Aug-10 11:36 254 0 gusting 1
2020-Aug-10 11:30 330
2020-Aug-10 11:24 305 0 gusting 1
2020-Aug-10 11:18 275 1 gusting 2
2020-Aug-10 11:12 252 0 gusting 3
2020-Aug-10 11:06 282 2 gusting 3
2020-Aug-10 11:00 263 1 gusting 3
2020-Aug-10 10:54 276 2 gusting 3
2020-Aug-10 10:48 296 1 gusting 3
2020-Aug-10 10:42 291 2 gusting 4
2020-Aug-10 10:36 276
2020-Aug-10 10:30 293 1 gusting 2
2020-Aug-10 10:24 250 0 gusting 5
2020-Aug-10 10:18 238 3 gusting 5
2020-Aug-10 10:12 245 2 gusting 6
2020-Aug-10 10:06 234 5 gusting 7
2020-Aug-10 10:00 228 6 gusting 8
2020-Aug-10 09:54 230 6 gusting 6
2020-Aug-10 09:48 234 5 gusting 6
2020-Aug-10 09:42 244 2 gusting 5
2020-Aug-10 09:36 242 2 gusting 4
2020-Aug-10 09:30 277 3 gusting 5
2020-Aug-10 09:24 256 3 gusting 4
2020-Aug-10 09:18 268 1 gusting 5
2020-Aug-10 09:12 253 3 gusting 6
2020-Aug-10 09:06 249 2 gusting 5
2020-Aug-10 09:00 238 2 gusting 4
2020-Aug-10 08:54 248 2 gusting 6
2020-Aug-10 08:48 235 4 gusting 6
2020-Aug-10 08:42 232 5 gusting 7
2020-Aug-10 08:36 247 2 gusting 7
2020-Aug-10 08:30 241 4 gusting 7
2020-Aug-10 08:24 238 3 gusting 8
2020-Aug-10 08:18 240 4 gusting 8
2020-Aug-10 08:12 234 6 gusting 8
2020-Aug-10 08:06 233 7 gusting 9
2020-Aug-10 08:00 238 5 gusting 9
2020-Aug-10 07:54 227 7 gusting 10
2020-Aug-10 07:48 218 7 gusting 8
2020-Aug-10 07:42 219 6 gusting 8
2020-Aug-10 07:36 213 7 gusting 9
2020-Aug-10 07:30 216 8 gusting 9
2020-Aug-10 07:24 212 8 gusting 9
2020-Aug-10 07:18 216 6 gusting 8
2020-Aug-10 07:12 219 7 gusting 9
2020-Aug-10 07:06 224 7 gusting 9
2020-Aug-10 07:00 224 6 gusting 7
2020-Aug-10 06:54 225 6 gusting 7
2020-Aug-10 06:48 216 6 gusting 7
2020-Aug-10 06:42 213 6 gusting 7
2020-Aug-10 06:36 214 6 gusting 7
2020-Aug-10 06:30 203 6 gusting 9
2020-Aug-10 06:24 205 7 gusting 11
2020-Aug-10 06:18 202 5 gusting 8
2020-Aug-10 06:12 208 6 gusting 7
2020-Aug-10 06:06 213 6 gusting 7
2020-Aug-10 06:00 213 5 gusting 6
2020-Aug-10 05:54 222 5 gusting 5
2020-Aug-10 05:48 216 5 gusting 6
2020-Aug-10 05:42 212 4 gusting 5
2020-Aug-10 05:36 214 5 gusting 6
2020-Aug-10 05:30 213 5 gusting 7
2020-Aug-10 05:24 222 6 gusting 6
2020-Aug-10 05:18 214 5 gusting 6
2020-Aug-10 05:12 209 6 gusting 7
2020-Aug-10 05:06 209 6 gusting 8
2020-Aug-10 05:00 201 6 gusting 7
2020-Aug-10 04:54 203 6 gusting 8
2020-Aug-10 04:48 205 6 gusting 9
2020-Aug-10 04:42 201 7 gusting 9
2020-Aug-10 04:36 204 7 gusting 9
2020-Aug-10 04:30 205 9 gusting 10
2020-Aug-10 04:24 200 8 gusting 11
2020-Aug-10 04:18 201 10 gusting 12
2020-Aug-10 04:12 204 7 gusting 10
2020-Aug-10 04:06 208 9 gusting 11
2020-Aug-10 04:00 200 9 gusting 10
2020-Aug-10 03:54 201 8 gusting 10
2020-Aug-10 03:48 203 8 gusting 10
2020-Aug-10 03:42 200 8 gusting 10
2020-Aug-10 03:36 203 8 gusting 10
2020-Aug-10 03:30 190 10 gusting 12
2020-Aug-10 03:24 195 9 gusting 12
2020-Aug-10 03:18 185 9 gusting 12
2020-Aug-10 03:12 193 9 gusting 13
2020-Aug-10 03:06 194 10 gusting 13
2020-Aug-10 03:00 190 11 gusting 13
2020-Aug-10 02:54 189 10 gusting 13
2020-Aug-10 02:48 185 10 gusting 13
2020-Aug-10 02:42 184 11 gusting 13
2020-Aug-10 02:36 192 10 gusting 13
2020-Aug-10 02:30 189 10 gusting 12
2020-Aug-10 02:24 190 9 gusting 13
2020-Aug-10 02:18 187 11 gusting 13
2020-Aug-10 02:12 184 9 gusting 12
2020-Aug-10 02:06 180 8 gusting 11
2020-Aug-10 02:00 182 9 gusting 11
2020-Aug-10 01:54 182 9 gusting 11
2020-Aug-10 01:48 177 8 gusting 10
2020-Aug-10 01:42 184 9 gusting 11
2020-Aug-10 01:36 190 8 gusting 10
2020-Aug-10 01:30 182 8 gusting 10
2020-Aug-10 01:24 185 8 gusting 10
2020-Aug-10 01:18 190 9 gusting 11
2020-Aug-10 01:12 190 9 gusting 12
2020-Aug-10 01:06 193 10 gusting 12
2020-Aug-10 01:00 189 10 gusting 13
2020-Aug-10 00:54 187 13 gusting 13
2020-Aug-10 00:48 187 13 gusting 13
2020-Aug-10 00:42 182 11 gusting 13
2020-Aug-10 00:36 184 12 gusting 13
2020-Aug-10 00:30 182 11 gusting 13
2020-Aug-10 00:24 185 13 gusting 14
2020-Aug-10 00:18 186 12 gusting 13
2020-Aug-10 00:12 197 10 gusting 13
2020-Aug-10 00:06 188 11 gusting 13
2020-Aug-10 00:00 192 9 gusting 12
2020-Aug-09 23:48 178 11 gusting 12
2020-Aug-09 23:42 178 9 gusting 11
2020-Aug-09 23:36 173 10 gusting 12
2020-Aug-09 23:30 178 10 gusting 12
2020-Aug-09 23:24 178 9 gusting 12
2020-Aug-09 23:18 182 9 gusting 13
2020-Aug-09 23:12 177 11 gusting 13
2020-Aug-09 23:06 173 12 gusting 15
2020-Aug-09 23:00 171 12 gusting 14
2020-Aug-09 22:54 173 12 gusting 14
2020-Aug-09 22:48 166 13 gusting 14
2020-Aug-09 22:42 168 11 gusting 13
2020-Aug-09 22:36 159 13 gusting 15
2020-Aug-09 22:30 161 13 gusting 14
2020-Aug-09 22:24 164 13 gusting 14
2020-Aug-09 22:18 156 13 gusting 15
2020-Aug-09 22:12 158 13 gusting 15
2020-Aug-09 22:06 159 13 gusting 14
2020-Aug-09 22:00 163 10 gusting 13
2020-Aug-09 21:54 166 12 gusting 13
2020-Aug-09 21:48 163 12 gusting 14
2020-Aug-09 21:42 164 13 gusting 15
2020-Aug-09 21:36 163 13 gusting 14
2020-Aug-09 21:30 164 13 gusting 14
2020-Aug-09 21:24 160 13 gusting 15
2020-Aug-09 21:18 157 11 gusting 13
2020-Aug-09 21:12 155 12 gusting 13
2020-Aug-09 21:06 158 11 gusting 13
2020-Aug-09 21:00 158 12 gusting 15
2020-Aug-09 20:54 148 13 gusting 14
2020-Aug-09 20:48 151 13 gusting 14
2020-Aug-09 20:42 153 13 gusting 13
2020-Aug-09 20:36 148 13 gusting 13
2020-Aug-09 20:30 147 13 gusting 13
2020-Aug-09 20:24 144 11 gusting 13
2020-Aug-09 20:18 150 12 gusting 13
2020-Aug-09 20:12 145 11 gusting 13
2020-Aug-09 20:06 149 11 gusting 13
2020-Aug-09 20:00 145 12 gusting 13
2020-Aug-09 19:54 146 11 gusting 12
2020-Aug-09 19:48 145 11 gusting 13
2020-Aug-09 19:42 148 12 gusting 13
2020-Aug-09 19:36 148 12 gusting 13
2020-Aug-09 19:30 148 11 gusting 13
2020-Aug-09 19:24 142 11 gusting 12
2020-Aug-09 19:18 148 11 gusting 13
2020-Aug-09 19:12 149 10 gusting 12
2020-Aug-09 19:06 142 10 gusting 13
2020-Aug-09 19:00 149 11 gusting 12
2020-Aug-09 18:54 153 10 gusting 11
2020-Aug-09 18:48 152 10 gusting 11
2020-Aug-09 18:42 151 9 gusting 12
2020-Aug-09 18:36 153 9 gusting 11
2020-Aug-09 18:30 156 9 gusting 10
2020-Aug-09 18:24 153 9 gusting 10
2020-Aug-09 18:18 150 7 gusting 9
2020-Aug-09 18:12 145 8 gusting 11
2020-Aug-09 18:06 151 8 gusting 10
2020-Aug-09 18:00 154 8 gusting 9
2020-Aug-09 17:54 146 7 gusting 8
2020-Aug-09 17:48 153 7 gusting 8
2020-Aug-09 17:42 147 6 gusting 7
2020-Aug-09 17:36 157 6 gusting 7
2020-Aug-09 17:30 149 6 gusting 7
2020-Aug-09 17:24 149 6 gusting 6
2020-Aug-09 17:18 148 5 gusting 6
2020-Aug-09 17:12 140 4 gusting 5
2020-Aug-09 17:06 137 3 gusting 4
2020-Aug-09 17:00 117 2 gusting 3
2020-Aug-09 16:54 134 3 gusting 4
2020-Aug-09 16:48 131 3 gusting 4
2020-Aug-09 16:42 143 3 gusting 4
2020-Aug-09 16:36 124 3 gusting 4
2020-Aug-09 16:30 140 3 gusting 4
2020-Aug-09 16:24 133 4 gusting 5
2020-Aug-09 16:18 136 3 gusting 4
2020-Aug-09 16:12 134 3 gusting 5
2020-Aug-09 16:06 147 4 gusting 5
2020-Aug-09 16:00 146 4 gusting 5
2020-Aug-09 15:54 146 4 gusting 6
2020-Aug-09 15:48 157 3 gusting 4
2020-Aug-09 15:42 147 3 gusting 5
2020-Aug-09 15:36 150 3 gusting 4
2020-Aug-09 15:30 152 2 gusting 3
2020-Aug-09 15:24 146 3 gusting 4
2020-Aug-09 15:18 118 3 gusting 3
2020-Aug-09 15:12 134 2 gusting 3
2020-Aug-09 15:06 109 2 gusting 4
2020-Aug-09 15:00 137 3 gusting 5
2020-Aug-09 14:54 152 3 gusting 5
2020-Aug-09 14:48 158 3 gusting 4
2020-Aug-09 14:42 160 2 gusting 3
2020-Aug-09 14:36 172 2 gusting 4
2020-Aug-09 14:30 165 2 gusting 4
2020-Aug-09 14:24 153 2 gusting 4
2020-Aug-09 14:18 140 3 gusting 4
2020-Aug-09 14:12 184 2 gusting 3
2020-Aug-09 14:06 171 0 gusting 3
2020-Aug-09 14:00 186 3 gusting 3
2020-Aug-09 13:54 170 2 gusting 3
2020-Aug-09 13:48 205 1 gusting 3
2020-Aug-09 13:42 189 3 gusting 4
2020-Aug-09 13:36 183 2 gusting 3
2020-Aug-09 13:30 209 1 gusting 2
2020-Aug-09 13:24 217 1 gusting 2
2020-Aug-09 13:18 261 1 gusting 2
2020-Aug-09 13:12 242 2 gusting 3
2020-Aug-09 13:06 260 2 gusting 4
2020-Aug-09 13:00 273 4 gusting 5
2020-Aug-09 12:54 243 3 gusting 5
2020-Aug-09 12:48 254 1 gusting 6
2020-Aug-09 12:42 241 1 gusting 5
2020-Aug-09 12:36 235 2 gusting 5
2020-Aug-09 12:30 234 2 gusting 4
2020-Aug-09 12:24 251 1 gusting 4
2020-Aug-09 12:18 259 2 gusting 4
2020-Aug-09 12:12 266 3 gusting 5
2020-Aug-09 12:06 311 2 gusting 3
2020-Aug-09 12:00 330 2 gusting 3
2020-Aug-09 11:54 019 2 gusting 3
2020-Aug-09 11:48 031 2 gusting 3
2020-Aug-09 11:42 027 3 gusting 3
2020-Aug-09 11:36 032 2 gusting 2
2020-Aug-09 11:30 018 2 gusting 4
2020-Aug-09 11:24 005 2 gusting 4
2020-Aug-09 11:18 027 3 gusting 4
2020-Aug-09 11:12 002 2 gusting 5
2020-Aug-09 11:06 322 4 gusting 5
2020-Aug-09 11:00 323 3 gusting 5
2020-Aug-09 10:54 316 3 gusting 6
2020-Aug-09 10:48 327 4 gusting 6
2020-Aug-09 10:42 328 4 gusting 5
2020-Aug-09 10:36 325 3 gusting 4
2020-Aug-09 10:30 320 3 gusting 5
2020-Aug-09 10:24 328 3 gusting 5
2020-Aug-09 10:18 304 3 gusting 5
2020-Aug-09 10:12 322 3 gusting 5
2020-Aug-09 10:06 323 3 gusting 4
2020-Aug-09 10:00 312 3 gusting 4
2020-Aug-09 09:54 296 4 gusting 6
2020-Aug-09 09:48 312 5 gusting 6
2020-Aug-09 09:42 324 5 gusting 6
2020-Aug-09 09:36 330 5 gusting 6
2020-Aug-09 09:30 322 4 gusting 6
2020-Aug-09 09:24 313 4 gusting 6
2020-Aug-09 09:18 309 5 gusting 6
2020-Aug-09 09:12 316 6 gusting 6
2020-Aug-09 09:06 304 5 gusting 6
2020-Aug-09 09:00 313 6 gusting 7
2020-Aug-09 08:54 314 6 gusting 7
2020-Aug-09 08:48 320 4 gusting 5
2020-Aug-09 08:42 299 4 gusting 6
2020-Aug-09 08:36 293 3 gusting 6
2020-Aug-09 08:30 307 5 gusting 6
2020-Aug-09 08:24 281 5 gusting 6
2020-Aug-09 08:18 284 5 gusting 6
2020-Aug-09 08:12 286 4 gusting 5
2020-Aug-09 08:06 281 4 gusting 6
2020-Aug-09 08:00 264 4 gusting 5
2020-Aug-09 07:54 278 2 gusting 5
2020-Aug-09 07:48 281 4 gusting 6
2020-Aug-09 07:42 281 5 gusting 6
2020-Aug-09 07:36 278 5 gusting 7
2020-Aug-09 07:30 282 6 gusting 7
2020-Aug-09 07:24 271 5 gusting 6
2020-Aug-09 07:18 269 4 gusting 6
2020-Aug-09 07:12 267 5 gusting 6
2020-Aug-09 07:06 266 5 gusting 6
2020-Aug-09 07:00 256 4 gusting 6
2020-Aug-09 06:54 257 6 gusting 7
2020-Aug-09 06:48 256 5 gusting 6
2020-Aug-09 06:42 263 7 gusting 9
2020-Aug-09 06:36 253 5 gusting 8
2020-Aug-09 06:30 245 3 gusting 7
2020-Aug-09 06:24 239 5 gusting 7
2020-Aug-09 06:18 241 5 gusting 9
2020-Aug-09 06:12 235 6 gusting 10
2020-Aug-09 06:06 242 5 gusting 8
2020-Aug-09 06:00 236 6 gusting 10
2020-Aug-09 05:54 241 4 gusting 6
2020-Aug-09 05:48 249 3 gusting 5
2020-Aug-09 05:42 250 3 gusting 5
2020-Aug-09 05:36 260 4 gusting 6
2020-Aug-09 05:30 252 3 gusting 6
2020-Aug-09 05:24 242 3 gusting 5
2020-Aug-09 05:18 250 4 gusting 6
2020-Aug-09 05:12 253 3 gusting 4
2020-Aug-09 05:06 248 3 gusting 6
2020-Aug-09 05:00 238 6 gusting 7
2020-Aug-09 04:54 243 3 gusting 5
2020-Aug-09 04:48 248 2 gusting 5
2020-Aug-09 04:42 242 3 gusting 7
2020-Aug-09 04:36 236 5 gusting 6
2020-Aug-09 04:30 243 3 gusting 5
2020-Aug-09 04:24 243 3 gusting 6
2020-Aug-09 04:18 249 2 gusting 6
2020-Aug-09 04:12 227 6 gusting 6
2020-Aug-09 04:06 239 4 gusting 6
2020-Aug-09 04:00 226 5 gusting 6
2020-Aug-09 03:54 219 5 gusting 6
2020-Aug-09 03:48 226 5 gusting 6
2020-Aug-09 03:42 229 5 gusting 6
2020-Aug-09 03:36 233 5 gusting 6
2020-Aug-09 03:30 244 1 gusting 5
2020-Aug-09 03:24 330 0 gusting 3
2020-Aug-09 03:18 312 1 gusting 2
2020-Aug-09 03:12 046 0 gusting 1
2020-Aug-09 03:06 022 1 gusting 2
2020-Aug-09 03:00 346 2 gusting 3
2020-Aug-09 02:54 003 2 gusting 3
2020-Aug-09 02:48 015 0 gusting 1
2020-Aug-09 02:42 244 0 gusting 1
2020-Aug-09 02:36 216 1 gusting 3
2020-Aug-09 02:30 231 2 gusting 4
2020-Aug-09 02:24 219 3 gusting 5
2020-Aug-09 02:18 218 5 gusting 6
2020-Aug-09 02:12 215 2 gusting 4
2020-Aug-09 02:06 231 2 gusting 3
2020-Aug-09 02:00 223 1 gusting 3
2020-Aug-09 01:54 226 2 gusting 3
2020-Aug-09 01:48 238 1 gusting 4
2020-Aug-09 01:42 224 3 gusting 4
2020-Aug-09 01:36 004
2020-Aug-09 01:30 022 0 gusting 1
2020-Aug-09 01:24 057 1 gusting 2
2020-Aug-09 01:18 078 2 gusting 3
2020-Aug-09 01:12 087 2 gusting 3
2020-Aug-09 01:06 078 3 gusting 3
2020-Aug-09 01:00 069 3 gusting 3
2020-Aug-09 00:54 123 2 gusting 3
2020-Aug-09 00:48 124 3 gusting 3
2020-Aug-09 00:42 125 4 gusting 5
2020-Aug-09 00:36 139 3 gusting 5
2020-Aug-09 00:30 132 4 gusting 6
2020-Aug-09 00:24 132 4 gusting 5
2020-Aug-09 00:18 126 4 gusting 5
2020-Aug-09 00:12 134 3 gusting 5
2020-Aug-09 00:06 128 5 gusting 6
2020-Aug-09 00:00 122 4 gusting 5
2020-Aug-08 23:48 113 3 gusting 4
2020-Aug-08 23:42 116 3 gusting 5
2020-Aug-08 23:36 107 5 gusting 6
2020-Aug-08 23:30 105 5 gusting 6
2020-Aug-08 23:24 112 5 gusting 6
2020-Aug-08 23:18 103 6 gusting 6
2020-Aug-08 23:12 101 6 gusting 6
2020-Aug-08 23:06 085 4 gusting 6
2020-Aug-08 23:00 096 5 gusting 6
2020-Aug-08 22:54 113 5 gusting 6
2020-Aug-08 22:48 108 5 gusting 6
2020-Aug-08 22:42 106 3 gusting 6
2020-Aug-08 22:36 117 2 gusting 3
2020-Aug-08 22:30 116 2 gusting 3
2020-Aug-08 22:24 069 3 gusting 5
2020-Aug-08 22:18 086 4 gusting 6
2020-Aug-08 22:12 102 3 gusting 5
2020-Aug-08 22:06 089 3 gusting 5
2020-Aug-08 22:00 072 4 gusting 6
2020-Aug-08 21:54 107 3 gusting 6
2020-Aug-08 21:48 111 2 gusting 3
2020-Aug-08 21:42 108 3 gusting 6
2020-Aug-08 21:36 120 4 gusting 6
2020-Aug-08 21:30 146 0 gusting 2
2020-Aug-08 21:24 191 3 gusting 4
2020-Aug-08 21:18 178 2 gusting 5
2020-Aug-08 21:12 196 2 gusting 4
2020-Aug-08 21:06 189 3 gusting 5
2020-Aug-08 21:00 200 3 gusting 5
2020-Aug-08 20:54 192 3 gusting 5
2020-Aug-08 20:48 176 3 gusting 5
2020-Aug-08 20:42 188 4 gusting 5
2020-Aug-08 20:36 186 4 gusting 5
2020-Aug-08 20:30 193 4 gusting 5
2020-Aug-08 20:24 196 3 gusting 4
2020-Aug-08 20:18 181 2 gusting 3
2020-Aug-08 20:12 183 2 gusting 4
2020-Aug-08 20:06 174 3 gusting 5
2020-Aug-08 20:00 176 3 gusting 3
2020-Aug-08 19:54 191 3 gusting 4
2020-Aug-08 19:48 185 2 gusting 5
2020-Aug-08 19:42 206 3 gusting 4
2020-Aug-08 19:36 198 2 gusting 3
2020-Aug-08 19:30 192 3 gusting 4
2020-Aug-08 19:24 182 4 gusting 6
2020-Aug-08 19:18 198 3 gusting 4
2020-Aug-08 19:12 170 2 gusting 3
2020-Aug-08 19:06 181 1 gusting 4
2020-Aug-08 19:00 165 1 gusting 3
2020-Aug-08 18:54 212 0 gusting 4
2020-Aug-08 18:48 201 2 gusting 3
2020-Aug-08 18:42 155
2020-Aug-08 18:36 176 1 gusting 3
2020-Aug-08 18:30 201 1 gusting 2
2020-Aug-08 18:24 222
2020-Aug-08 18:18 189 1 gusting 4
2020-Aug-08 18:12 193 1 gusting 2
2020-Aug-08 18:06 191 1 gusting 3
2020-Aug-08 18:00 201 1 gusting 2